Find Kosmos-1176

NORAD ID: 11788 Int'l Des: 1980-034 Owner: VMF Country: SU operational
LEOCIRCULAR

Live Position

Loading 3D Globe...

About Kosmos-1176

Description loading...

Upcoming Passes

Passes for default location (London). Set your location on the main map for personalized predictions.

Altitude History

Loading altitude history...

Two-Line Element Set

1 11788U 80034A 26106.90231698 -.00000043 00000-0 37233-4 0 9993
2 11788 64.8283 175.0369 0060825 290.9277 68.5283 13.93142428333284
Epoch: Apr 16, 2026 • Age: 15 hours

Current Status

Altitude 912.2 km
Velocity 7.41 km/s
Sub-Earth Point -42.95°S, 14.52°W
Launch Date Apr 29, 1980
Age 45.9 years
Type other

Technical Details

Classification Payload
Mass 1154.00 kg
Dry Mass 1154.00 kg
Total Mass 4300.00 kg
Length 5.80 m
Diameter 1.30 m
Span 5.80 m
Shape Cyl
Manufacturer KOMET
Bus Type US-A reactor
Phase Status In Orbit
Owner/State VMF/SU

Most Searched